FW8506 Weather Reports


time (UTC)temp
C
wind
direction
speed
KPH
gust
KPH
rain 1hr
cm
rain 24hr
cm
rain mn
cm
humidity
%
barometer
mb
20260503212021 16 252 9.7 27.4 0.00 0.00 0.00 63 1013.1
20260503211538 15 277 6.4 27.4 0.00 0.00 0.00 65 1013.2
20260503211021 16 223 11.3 27.4 0.00 0.00 0.00 65 1013.2
20260503210519 15 236 14.5 25.7 0.00 0.00 0.00 65 1013.2
20260503210038 15 220 11.3 22.5 0.00 0.00 0.00 65 1013.3
20260503205521 15 248 11.3 22.5 0.00 0.00 0.00 67 1013.4
20260503205022 15 240 9.7 22.5 0.00 0.00 0.00 65 1013.3
20260503204534 15 227 8.0 25.7 0.00 0.00 0.00 66 1013.3
20260503204020 15 228 9.7 25.7 0.00 0.00 0.00 66 1013.4
20260503203521 15 222 11.3 22.5 0.00 0.00 0.00 65 1013.5
20260503203041 15 220 9.7 30.6 0.00 0.00 0.00 64 1013.5
20260503202521 15 271 11.3 30.6 0.00 0.00 0.00 65 1013.5
20260503202022 15 267 14.5 29.0 0.00 0.00 0.00 63 1013.5
20260503201541 15 199 8.0 20.9 0.00 0.00 0.00 64 1013.5
20260503201021 15 184 11.3 25.7 0.00 0.00 0.00 65 1013.4
20260503200521 15 236 11.3 25.7 0.00 0.00 0.00 64 1013.3
20260503200046 15 254 9.7 20.9 0.00 0.00 0.00 64 1013.4
20260503195519 16 257 9.7 20.9 0.00 0.00 0.00 62 1013.5
20260503195021 16 221 11.3 22.5 0.00 0.00 0.00 61 1013.6
20260503194544 17 266 12.9 24.1 0.00 0.00 0.00 60 1013.7
20260503194023 17 269 11.3 24.1 0.00 0.00 0.00 59 1013.7
20260503193524 16 250 9.7 24.1 0.00 0.00 0.00 60 1013.6
20260503193036 16 277 9.7 24.1 0.00 0.00 0.00 61 1013.6
20260503192530 16 294 8.0 20.9 0.00 0.00 0.00 66 1013.6
20260503192020 16 250 11.3 20.9 0.00 0.00 0.00 64 1013.7
20260503191547 15 222 8.0 20.9 0.00 0.00 0.00 66 1013.7
20260503191022 15 266 8.0 19.3 0.00 0.00 0.00 65 1013.7
20260503190520 16 209 8.0 17.7 0.00 0.00 0.00 67 1013.7
20260503190046 15 273 9.7 19.3 0.00 0.00 0.00 67 1013.8
20260503185521 15 245 8.0 19.3 0.00 0.00 0.00 68 1013.9
20260503185019 15 232 12.9 19.3 0.00 0.00 0.00 65 1013.9
20260503184554 15 269 8.0 17.7 0.00 0.00 0.00 67 1014.0
20260503184021 14 274 9.7 20.9 0.00 0.00 0.00 69 1014.0
20260503183518 14 245 11.3 20.9 0.00 0.00 0.00 70 1014.0
20260503183055 13 257 9.7 17.7 0.00 0.00 0.00 73 1014.0
20260503182521 13 279 4.8 16.1 0.00 0.00 0.00 73 1014.1
20260503182021 13 267 4.8 17.7 0.00 0.00 0.00 76 1014.1
20260503181541 13 250 6.4 17.7 0.00 0.00 0.00 76 1014.1
20260503181020 12 217 8.0 17.7 0.00 0.00 0.00 76 1014.2
20260503180520 12 234 8.0 17.7 0.00 0.00 0.00 79 1014.1
20260503180044 12 213 11.3 17.7 0.00 0.00 0.00 78 1014.1
20260503175520 12 229 6.4 14.5 0.00 0.00 0.00 77 1014.1
20260503175025 12 239 4.8 16.1 0.00 0.00 0.00 77 1014.1
20260503174539 12 277 4.8 16.1 0.00 0.00 0.00 76 1014.0
20260503174020 13 247 6.4 19.3 0.00 0.00 0.00 77 1014.0
20260503173524 13 261 11.3 19.3 0.00 0.00 0.00 77 1014.0
20260503173038 13 273 6.4 19.3 0.00 0.00 0.00 76 1014.0
20260503172519 13 175 6.4 19.3 0.00 0.00 0.00 77 1014.0
20260503172020 12 230 11.3 19.3 0.00 0.00 0.00 77 1014.0
20260503171542 12 247 8.0 17.7 0.00 0.00 0.00 79 1013.9
20260503171020 12 289 8.0 20.9 0.00 0.00 0.00 80 1013.9
20260503170520 12 225 8.0 20.9 0.00 0.00 0.00 80 1013.8
20260503150520 11 0 0.0 1.6 0.00 0.00 0.00 87 1013.1
20260503131020 8 0 0.0 4.8 0.00 0.00 0.00 91 1012.2
20260503130521 8 0 0.0 4.8 0.00 0.00 0.00 91 1012.1
20260503110522 9 0 0.0 1.6 0.00 0.00 0.00 88 1011.8
20260503081554 9 257 1.6 4.8 0.00 0.00 0.00 90 1012.3
20260503081021 9 257 0.0 4.8 0.00 0.00 0.00 91 1012.4
20260503080520 9 257 0.0 4.8 0.00 0.00 0.00 91 1012.4
20260503072519 10 0 0.0 4.8 0.00 0.00 0.00 90 1012.2
20260503072020 10 0 0.0 4.8 0.00 0.00 0.00 90 1012.1
20260503071540 10 0 0.0 4.8 0.00 0.00 0.00 90 1012.1
20260503071019 9 304 1.6 4.8 0.00 0.00 0.00 89 1012.1
20260503070521 10 272 0.0 3.2 0.00 0.00 0.00 89 1012.1
20260503055019 11 281 3.2 9.7 0.00 0.00 0.00 87 1011.8
20260503054547 11 281 3.2 9.7 0.00 0.00 0.00 87 1011.8
20260503054022 11 218 3.2 9.7 0.00 0.00 0.00 87 1011.8
20260503053520 11 238 3.2 11.3 0.00 0.00 0.00 87 1011.7
20260503053039 11 220 4.8 11.3 0.00 0.00 0.00 87 1011.7
20260503052520 11 222 4.8 11.3 0.00 0.00 0.00 87 1011.7
20260503052019 11 221 3.2 17.7 0.00 0.00 0.00 87 1011.7
20260503051538 11 260 4.8 17.7 0.00 0.00 0.00 87 1011.6
20260503051019 11 254 8.0 17.7 0.00 0.00 0.00 88 1011.5
20260503050522 11 257 4.8 16.1 0.00 0.00 0.00 88 1011.4
20260503050038 11 242 9.7 19.3 0.00 0.00 0.00 88 1011.5
20260503045522 11 245 4.8 19.3 0.00 0.00 0.00 88 1011.5
20260503045022 11 271 8.0 19.3 0.00 0.00 0.00 88 1011.4
20260503044549 11 281 8.0 17.7 0.00 0.00 0.00 88 1011.3
20260503044021 11 240 4.8 17.7 0.00 0.00 0.00 88 1011.2
20260503043521 11 270 9.7 16.1 0.00 0.00 0.00 88 1011.2
20260503043043 11 263 6.4 14.5 0.00 0.00 0.00 88 1011.0
20260503042521 11 261 6.4 16.1 0.00 0.00 0.00 88 1011.0
20260503042021 11 254 6.4 16.1 0.00 0.00 0.00 88 1011.1
20260503041545 11 257 6.4 17.7 0.00 0.00 0.00 88 1011.0
20260503041021 11 228 8.0 17.7 0.00 0.00 0.00 88 1011.0
20260503040521 11 196 9.7 22.5 0.00 0.00 0.00 88 1011.0
20260503040041 11 221 9.7 22.5 0.00 0.00 0.00 88 1011.0
20260503035521 11 223 8.0 30.6 0.00 0.00 0.00 88 1011.0
20260503035022 11 214 11.3 30.6 0.00 0.00 0.00 87 1010.9
20260503034542 11 218 8.0 32.2 0.00 0.00 0.00 87 1010.9
20260503034021 11 238 12.9 32.2 0.00 0.00 0.00 87 1010.9
20260503033520 11 217 11.3 32.2 0.00 0.00 0.00 87 1010.8
20260503033058 11 274 11.3 24.1 0.00 0.00 0.00 86 1010.7
20260503032518 11 261 9.7 22.5 0.00 0.00 0.00 86 1010.7
20260503032025 11 249 8.0 22.5 0.00 0.00 0.00 86 1010.9
20260503031552 11 250 11.3 22.5 0.00 0.00 0.00 85 1010.9
20260503031025 11 229 8.0 24.1 0.00 0.00 0.00 85 1010.8
20260503030521 11 227 8.0 24.1 0.00 0.00 0.00 85 1010.8
20260503030040 11 222 11.3 24.1 0.00 0.00 0.00 85 1010.7
20260503025519 11 226 11.3 24.1 0.00 0.00 0.00 85 1010.7
20260503025021 11 239 9.7 17.7 0.00 0.00 0.00 84 1010.7
20260503024536 12 232 8.0 16.1 0.00 0.00 0.00 84 1010.7
20260503024019 12 265 6.4 17.7 0.00 0.00 0.00 83 1010.6
20260503023521 12 266 8.0 17.7 0.00 0.00 0.00 83 1010.7
20260503023045 12 258 8.0 17.7 0.00 0.00 0.00 82 1010.7
20260503022520 12 215 9.7 19.3 0.00 0.00 0.00 82 1010.7
20260503022020 12 212 8.0 19.3 0.00 0.00 0.00 81 1010.7
20260503021540 12 213 8.0 17.7 0.00 0.00 0.00 81 1010.7
20260503021021 13 275 9.7 19.3 0.00 0.00 0.00 80 1010.7
20260503020522 13 240 8.0 19.3 0.00 0.00 0.00 79 1010.6
20260503020048 13 269 9.7 19.3 0.00 0.00 0.00 79 1010.6
20260503015519 13 235 8.0 19.3 0.00 0.00 0.00 78 1010.6
20260503015019 14 244 9.7 19.3 0.00 0.00 0.00 77 1010.6
20260503014542 14 224 9.7 17.7 0.00 0.00 0.00 77 1010.6
20260503014019 14 245 6.4 20.9 0.00 0.00 0.00 76 1010.6
20260503013519 14 228 8.0 20.9 0.00 0.00 0.00 76 1010.5
20260503013039 15 271 9.7 22.5 0.00 0.00 0.00 76 1010.5
20260503012521 15 274 11.3 22.5 0.00 0.00 0.00 76 1010.4
20260503012020 15 236 11.3 24.1 0.00 0.00 0.00 75 1010.4
20260503011546 15 231 9.7 24.1 0.00 0.00 0.00 75 1010.3
20260503011021 15 289 8.0 27.4 0.00 0.00 0.00 75 1010.3
20260503010519 15 213 11.3 29.0 0.00 0.00 0.00 75 1010.3
20260503010041 15 243 16.1 29.0 0.00 0.00 0.00 75 1010.3
20260503005520 15 213 16.1 30.6 0.00 0.00 0.00 75 1010.3
20260503005020 15 213 17.7 32.2 0.00 0.00 0.00 75 1010.3
20260503004543 15 221 19.3 32.2 0.00 0.00 0.00 74 1010.2
20260503004023 16 239 14.5 32.2 0.00 0.00 0.00 73 1010.1
20260503003518 16 210 17.7 35.4 0.00 0.00 0.00 74 1010.1
20260503003043 15 225 20.9 35.4 0.00 0.00 0.00 73 1010.1
20260503002521 16 209 19.3 38.6 0.00 0.00 0.00 73 1010.1
20260503002025 16 234 22.5 38.6 0.00 0.00 0.00 73 1010.2
20260503001537 16 234 19.3 35.4 0.00 0.00 0.00 71 1010.2
20260503001019 16 227 19.3 32.2 0.00 0.00 0.00 71 1010.2
20260503000522 16 244 17.7 33.8 0.00 0.00 0.00 70 1010.2
20260503000035 16 219 19.3 33.8 0.00 0.00 0.00 71 1010.2
20260502235519 16 221 16.1 33.8 0.00 0.00 0.00 71 1010.2
20260502235021 16 225 20.9 32.2 0.00 0.00 0.00 70 1010.2
20260502234541 17 213 19.3 33.8 0.00 0.00 0.00 69 1010.2
20260502234019 17 223 20.9 33.8 0.00 0.00 0.00 68 1010.2
20260502233521 17 229 12.9 32.2 0.00 0.00 0.00 68 1010.2
20260502233059 17 250 16.1 33.8 0.00 0.00 0.00 68 1010.3
20260502232521 17 223 19.3 33.8 0.00 0.00 0.00 69 1010.3
20260502232021 17 259 16.1 25.7 0.00 0.00 0.00 69 1010.4
20260502231602 18 281 12.9 29.0 0.00 0.00 0.00 67 1010.5
20260502231022 17 291 17.7 29.0 0.00 0.00 0.00 69 1010.6
20260502230520 17 245 16.1 29.0 0.00 0.00 0.00 68 1010.6
20260502230036 17 277 14.5 29.0 0.00 0.00 0.00 68 1010.7
20260502225521 18 265 12.9 30.6 0.00 0.00 0.00 68 1010.7
20260502225018 18 228 12.9 30.6 0.00 0.00 0.00 68 1010.8
20260502224545 18 236 12.9 29.0 0.00 0.00 0.00 67 1011.0
20260502224021 18 225 12.9 33.8 0.00 0.00 0.00 66 1011.1
20260502223521 18 218 14.5 33.8 0.00 0.00 0.00 66 1011.1
20260502223048 18 277 17.7 33.8 0.00 0.00 0.00 66 1011.2
20260502222521 18 275 14.5 32.2 0.00 0.00 0.00 67 1011.2
20260502222022 18 228 19.3 32.2 0.00 0.00 0.00 67 1011.3
20260502221540 18 311 19.3 30.6 0.00 0.00 0.00 67 1011.4
20260502221021 18 267 17.7 29.0 0.00 0.00 0.00 67 1011.5
20260502220522 18 212 17.7 29.0 0.00 0.00 0.00 68 1011.7
20260502220043 18 259 12.9 27.4 0.00 0.00 0.00 69 1011.7
20260502215521 18 242 12.9 29.0 0.00 0.00 0.00 68 1011.8
20260502215022 18 266 16.1 29.0 0.00 0.00 0.00 70 1011.9
20260502214542 18 265 14.5 29.0 0.00 0.00 0.00 70 1012.0
20260502214021 18 277 16.1 29.0 0.00 0.00 0.00 69 1012.0
20260502213521 18 230 12.9 25.7 0.00 0.00 0.00 68 1012.2
20260502213050 18 253 12.9 25.7 0.00 0.00 0.00 68 1012.1
20260502212521 18 279 12.9 25.7 0.00 0.00 0.00 69 1012.2